This is the latest recevied weather packets stored in our database for station/object KC5DAQ-26. If no packets are shown the sender has not sent any weather packets the latest 10 day(s).
| Time | Temp. | Humidity | Pressure | Rain* | Wind** | Luminosity | Snow |
|---|---|---|---|---|---|---|---|
| 1788111485 | 33.33° C | 62% | 1020 hPa | 0 mm | - | 116 W/m² | - |
| 1788111425 | 33.33° C | 63% | 1020 hPa | 0 mm | - | 188 W/m² | - |
| 1788111364 | 32.78° C | 64% | 1020 hPa | 0 mm | - | 225 W/m² | - |
| 1788111304 | 32.78° C | 62% | 1020 hPa | 0 mm | - | 271 W/m² | - |
| 1788111245 | 33.33° C | 61% | 1020 hPa | 0 mm | - | 322 W/m² | - |
| 1788111185 | 33.33° C | 62% | 1020 hPa | 0 mm | - | 380 W/m² | - |
| 1788111124 | 33.33° C | 61% | 1020 hPa | 0 mm | - | 494 W/m² | - |
| 1788111064 | 33.33° C | 63% | 1020.1 hPa | 0 mm | - | 549 W/m² | - |
| 1788111006 | 33.33° C | 63% | 1020.2 hPa | 0 mm | - | 600 W/m² | - |
| 1788110944 | 33.33° C | 63% | 1020.1 hPa | 0 mm | - | 654 W/m² | - |
| 1788110884 | 33.33° C | 62% | 1020.1 hPa | 0 mm | - | 698 W/m² | - |
| 1788110825 | 33.33° C | 62% | 1020.1 hPa | 0 mm | - | 746 W/m² | - |
| 1788110765 | 33.33° C | 63% | 1020.1 hPa | 0 mm | - | 830 W/m² | - |
| 1788110705 | 33.33° C | 62% | 1020.1 hPa | 0 mm | - | 862 W/m² | - |
| 1788110644 | 33.33° C | 65% | 1020.1 hPa | 0 mm | - | 893 W/m² | - |
| 1788110585 | 33.33° C | 63% | 1020.2 hPa | 0 mm | - | 913 W/m² | - |
| 1788110524 | 33.33° C | 63% | 1020.2 hPa | 0 mm | - | 918 W/m² | - |
| 1788110464 | 33.33° C | 65% | 1020.2 hPa | 0 mm | - | 918 W/m² | - |
| 1788110406 | 33.33° C | 63% | 1020.2 hPa | 0 mm | - | 913 W/m² | - |
| 1788110344 | 33.33° C | 65% | 1020.3 hPa | 0 mm | - | 914 W/m² | - |
| 1788110284 | 33.33° C | 63% | 1020.3 hPa | 0 mm | - | 909 W/m² | - |
| 1788110225 | 33.33° C | 63% | 1020.3 hPa | 0 mm | - | 918 W/m² | - |
| 1788110166 | 33.33° C | 63% | 1020.3 hPa | 0 mm | - | 918 W/m² | - |
| 1788110104 | 33.33° C | 64% | 1020.4 hPa | 0 mm | - | 923 W/m² | - |
| 1788110043 | 33.33° C | 65% | 1020.3 hPa | 0 mm | - | 318 W/m² | - |
* Rain latest hour (hover to see other rain measurements)
** Current wind speed in m/s (hover to see current wind gust speed)